Welcome to the New NWS' Forecast!
Most changes are behind the scenes, but click here for differences you might notice.

Regional Weather Roundup (RWR)

Issued by Gray - Portland, ME (GYX)

                            
000
ASUS41 KGYX 120205
RWRGYX
WEATHER ROUNDUP FOR MAINE AND NEW HAMPSHIRE
NATIONAL WEATHER SERVICE GRAY ME
900 PM EST SUN NOV 11 2018

MEZ002-005-006-010-012-015-018-020-021-024-026-027-029-120300-
MAINE
  
CITY           SKY/WX    TMP DP  RH WIND       PRES   REMARKS
PORTLAND       FAIR      30  13  49 CALM      30.29R                  
SANFORD        FAIR      21  18  88 CALM      30.29R                  
BAR HARBOR     FAIR      29  17  61 W6        30.23R                  
WISCASSET      FAIR      25  19  78 CALM      30.29R                  
ROCKLAND       FAIR      29  16  58 W7        30.27R                  
FRYEBURG       FAIR      32   7  35 W9G24     30.24S                  
LEWISTONAUBURN FAIR      24  17  74 CALM      30.27R                  
AUGUSTA        FAIR      29   9  43 W5        30.26R                  
WATERVILLE     FAIR      28  13  53 MISG      30.22S                  
BANGOR         FAIR      27  13  55 W6        30.23R                  
GREENVILLE       N/A     21  11  65 NW15G24   30.11R WCI   8          
MILLINOCKET    FAIR      26  13  57 W17G26    30.17S WCI  13          
HOULTON        FAIR      24  14  65 W14       30.09R WCI  12          
PRESQUE ISLE   FAIR      23  15  71 W8        30.08R                  
FRENCHVILLE    CLOUDY    25  12  58 NW14G21   30.01R WCI  13          
CARIBOU        FAIR      24  15  68 W7        30.03R                  
$$

NHZ002-005-008-009-011-012-014-120300-
NEW HAMPSHIRE
  
CITY           SKY/WX    TMP DP  RH WIND       PRES   REMARKS
PORTSMOUTH     CLEAR     32  13  44 SW6       30.30R                  
ROCHESTER      FAIR      31  13  47 CALM      30.29R                  
NASHUA         FAIR      33  16  49 SW3       30.33R                  
MANCHESTER     FAIR      33  14  45 SW3       30.30R                  
CONCORD        FAIR      32  14  47 W8        30.30R                  
LACONIA        FAIR      32  16  51 VRB3      30.28R                  
PLYMOUTH       FAIR      29  15  56 W3        30.28R                  
BERLIN         FAIR      21  15  78 CALM      30.23R                  
WHITEFIELD     FAIR      25  12  58 SW6       30.26R                  
JAFFREY        FAIR      30  18  60 W3        30.29R                  
KEENE          FAIR      29  21  72 CALM      30.32R                  
LEBANON        FAIR      26  17  68 S5        30.30R                  
MT WASHINGTON  PTCLDY     1  -2  85 W56         N/A  WCI -30          
$$

VTZ005-007-008-120300-
VERMONT
  
CITY           SKY/WX    TMP DP  RH WIND       PRES   REMARKS
ST JOHNSBURY     N/A     23  17  78 MISG      30.27R                  
MONTPELIER     FAIR      27  13  55 W6        30.30R                  
BURLINGTON     FAIR      33  17  51 W7G16     30.32R                  
$$

MAZ007-012-024-CTZ003-RIZ002-NYZ038-NYZ072-120300-
SOUTHERN NEW ENGLAND AND NY
  
CITY           SKY/WX    TMP DP  RH WIND       PRES   REMARKS
BOSTON         FAIR      39  18  42 W10       30.34R                  
WORCESTER      FAIR      30  18  60 W8        30.30R                  
NANTUCKET      FAIR      39  23  52 NW9       30.33R                  
PROVIDENCE     FAIR      35  20  54 NW6       30.35R                  
HARTFORD       FAIR      34  20  56 NW3       30.36R                  
ALBANY         MOCLDY    32  23  69 S3        30.36S                  
NEW YORK CITY  FAIR      45  22  40 NW8       30.37R                  
$$

ANZ081-ANZ082-ANZ150-NHZ014-MEZ023>029-120300-
COASTAL MARINE OBSERVATIONS
  
STATION/POSITION TIME  TEMP    WIND        PRES    WAVE
                       AIR SEA DIR/SP/G            HT/PER
                 (UTC) (F)     (DEG/KT/KT) (MB)    (FT/S)
MOUNT DESERT ROC 0200   35     280/ 24/ 28 1023.9R
MATINICUS ROCK   0100   36     290/ 27/ 30 1023.3R
ISLE OF SHOALS   0100   39     280/ 17/ 19 1025.2R
JEFFREYS LEDGE   0136      51                N/A     4/ 5
CASHES LEDGE BUO 0150   39 51              1024.6R   6/ 6
$$

.............KEY..............
   WCI - WIND CHILL
   TC  - TEMPERATURE IN CELSIUS
   VSB - VISIBILITY IN MILES
   HX  - HEAT INDEX
   FAIR- INDICATES FEW OR NO CLOUDS BELOW 12,000 FT, WITH NO 
         SIGNIFICANT WEATHER AND/OR OBSTRUCTIONS TO VISIBILITY.